Regional Weather Roundup
Issued by NWS Burlington, VT

Home | Current Version | Previous Version | Text Only | Print | Product List | Glossary On
Versions: 1 2 3 4 5 6 7 8 9 10 11 12 13 14 15 16 17 18 19 20 21 22 23 24 25 26 27 28 29 30 31 32 33 34 35 36 37 38 39 40 41 42 43 44 45 46 47 48 49 50
000
ASUS41 KBTV 070110
RWRBTV
VERMONT REGIONAL WEATHER ROUNDUP
NATIONAL WEATHER SERVICE BURLINGTON VT
900 PM EDT WED MAY 06 2015

NOTE: "FAIR" INDICATES FEW OR NO CLOUDS BELOW 12,000 FEET WITH NO
SIGNIFICANT WEATHER AND/OR OBSTRUCTIONS TO VISIBILITY.

* THESE REPORTS ARE NOT UNDER NWS QUALITY CONTROL AND/OR DO NOT
  REPORT WEATHER SUCH AS PRECIPITATION AND FOG.

VTZ001>019-070200-
_____VERMONT_____


CITY           SKY/WX    TMP DP  RH WIND       PRES   REMARKS
BURLINGTON     CLEAR     64  36  35 S3        30.15S
MONTPELIER     CLEAR     60  32  34 CALM      30.22R
MORRISVILLE    CLEAR     56  39  53 S3        30.18R
ST. JOHNSBURY*   N/A     63  35  35 MISG      30.14R
LYNDONVILLE*     N/A     64  24  22 CALM      30.18S
MIDDLEBURY*      N/A     60  37  41 CALM      30.17R
RUTLAND*       CLEAR     61  34  36 SE7       30.17R
SPRINGFIELD    CLEAR     59  37  44 N3        30.17R
HIGHGATE*        N/A     63  37  38 CALM      30.15R
NEWPORT*         N/A     60  34  36 W6        30.16S
BENNINGTON     CLEAR     53  40  61 S5        30.18R

_____LAKE CHAMPLAIN_____


CITY           SKY/WX    TMP DP  RH WIND       PRES   REMARKS

$$

NYZ007-026>031-035-052-083-070200-
_____NORTHERN NEW YORK_____


CITY           SKY/WX    TMP DP  RH WIND       PRES   REMARKS
PLATTSBURGH    CLEAR     57  39  51 CALM      30.15R
SARANAC LAKE   CLEAR     52  34  50 CALM      30.19R
MASSENA        CLEAR     59  40  49 CALM      30.17R
OGDENSBURG*    CLEAR     61  43  51 SW3       30.17R
POTSDAM*       CLEAR     57  43  58 SW3       30.17S
WATERTOWN      CLEAR     57  41  55 CALM      30.19R
ALBANY         PTCLDY    68  35  29 S8        30.18R
GLENS FALLS    CLEAR     62  37  39 SW5       30.16R

$$
NHZ002-005-011-070200-
_____NEW HAMPSHIRE_____


CITY           SKY/WX    TMP DP  RH WIND       PRES   REMARKS
LEBANON        CLEAR     54  40  59 CALM      30.15R
KEENE          CLEAR     61  36  39 CALM      30.18R
MT WASHINGTON  PTCLDY    39  25  56 NW45        N/A
PLYMOUTH         N/A     56  47  71 CALM      30.15R
WHITEFIELD     CLEAR     54  36  50 CALM      30.16R

$$

_____REGIONAL QUEBEC LOCATIONS_____


CITY           SKY/WX    TMP DP  RH WIND       PRES   REMARKS
MONTREAL       PTCLDY    66  36  32 SW9       30.12S
QUEBEC CITY    PTCLDY    59  37  44 NW13      30.09R
SHERBROOKE     MOCLDY    61  32  33 W3        30.12R

_____REGIONAL ONTARIO LOCATIONS_____


CITY           SKY/WX    TMP DP  RH WIND       PRES   REMARKS
OTTAWA         PTCLDY    64  37  36 S3        30.16R

______KEY______
VSB  - VISIBILITY IN MILES
WCI  - WIND CHILL INDEX
HX   - HEAT INDEX
$$
NNNN


USA.gov is the U.S. government's official web portal to all federal, state and local government web resources and services.